Flag for U.S.A. Weather past 2 weeks in Midland, Texas, U.S.A.

Now
63 °F

Sunny.


Feels Like: 63 °F
Forecast: 50 / 69 °F
Wind: 8 mph from North

Location: Midland - Midland Airpark

Current Time: Dec 22, 2014 at 2:49:38 PM

Latest Report: Dec 22, 2014 at 2:15 PM


Visibility: 10 mi

Pressure: 29.70 "Hg

Humidity: 34%

Dew point: 34 °F

Location of MidlandLocation

Historic Weather in Midland — Graph

°F

Midland temperature yesterday

Maximum temperature yesterday: 68 °F (at 4:35 PM)
Minimum temperature yesterday: 43 °F (at 8:55 AM)
Average temperature yesterday: 55 °F

Past Weeks' High & Low Weather Summary

 TemperatureHumidityPressure
High73 °F (Dec 13, 2:55 PM)100% (Dec 8, 12:15 AM)30.41 "Hg (Dec 8, 12:15 AM)
Low32 °F (Dec 20, 3:35 AM)14% (Dec 14, 11:55 AM)29.70 "Hg (Dec 22, 4:35 AM)
Average54 °F67%30.11 "Hg
* Reported Dec 7 1:15 PM — Dec 22 1:55 PM, Midland, Weather by CustomWeather, © 2014

Note: Actual official high and low records may vary slightly from our data, if they occured in-between our weather recording intervals... More about our weather records

Advertising

Midland weather history for previous 24 hours

 ConditionsComfort  
Time TempWeatherWind HumidityBarometerVisibility
1:55 PM
Dec 22
64 °FSunny.10 mph33%29.71 "Hg10 mi
1:15 PM63 °FSunny.8 mph33%29.73 "Hg10 mi
12:55 PM64 °FSunny.9 mph32%29.74 "Hg10 mi
12:15 PM67 °FSunny.10 mph28%29.75 "Hg10 mi
11:55 AM67 °FSunny.21 mph27%29.76 "Hg10 mi
11:15 AM64 °FSunny.12 mph30%29.78 "Hg10 mi
10:55 AM63 °FSunny.12 mph31%29.78 "Hg10 mi
10:15 AM61 °FSunny.9 mph33%29.78 "Hg10 mi
9:55 AM60 °FSunny.14 mph34%29.77 "Hg10 mi
9:35 AM58 °FSunny.12 mph36%29.77 "Hg10 mi
9:15 AM58 °FSunny.13 mph35%29.76 "Hg10 mi
8:55 AM56 °FSunny.16 mph38%29.75 "Hg10 mi
8:15 AM55 °FSunny.13 mph38%29.74 "Hg10 mi
7:55 AM55 °FSunny.13 mph39%29.73 "Hg10 mi
7:35 AM54 °FClear.14 mph39%29.72 "Hg10 mi
7:15 AM54 °FClear.13 mph39%29.72 "Hg10 mi
6:55 AM55 °FClear.15 mph38%29.72 "Hg10 mi
6:35 AM55 °FClear.15 mph38%29.71 "Hg10 mi
6:15 AM54 °FClear.14 mph38%29.71 "Hg10 mi
5:55 AM55 °FClear.16 mph37%29.70 "Hg10 mi
5:35 AM55 °FClear.14 mph36%29.70 "Hg10 mi
5:15 AM54 °FClear.15 mph37%29.70 "Hg10 mi
4:55 AM54 °FClear.13 mph36%29.71 "Hg10 mi
4:35 AM54 °FClear.13 mph36%29.70 "Hg10 mi
4:15 AM54 °FClear.10 mph36%29.71 "Hg10 mi
3:55 AM54 °FClear.13 mph37%29.71 "Hg10 mi
3:15 AM55 °FClear.13 mph35%29.71 "Hg10 mi
2:55 AM55 °FClear.12 mph35%29.72 "Hg10 mi
2:35 AM55 °FClear.14 mph34%29.71 "Hg10 mi
2:15 AM56 °FClear.12 mph34%29.72 "Hg10 mi
1:55 AM56 °FClear.12 mph33%29.72 "Hg10 mi
1:15 AM56 °FClear.13 mph33%29.72 "Hg10 mi
12:55 AM57 °FClear.14 mph32%29.72 "Hg10 mi
12:35 AM58 °FClear.12 mph31%29.73 "Hg10 mi
12:15 AM58 °FClear.14 mph30%29.73 "Hg10 mi
11:55 PM
Dec 21
58 °FClear.15 mph30%29.73 "Hg10 mi
11:15 PM58 °FClear.12 mph30%29.74 "Hg10 mi
10:55 PM58 °FClear.13 mph30%29.74 "Hg10 mi
10:15 PM59 °FClear.15 mph28%29.73 "Hg10 mi
9:55 PM59 °FClear.15 mph28%29.73 "Hg10 mi
9:35 PM60 °FClear.14 mph27%29.73 "Hg10 mi
9:15 PM60 °FClear.15 mph26%29.74 "Hg10 mi
8:55 PM61 °FClear.15 mph26%29.74 "Hg10 mi
8:35 PM62 °FClear.15 mph25%29.73 "Hg10 mi
8:15 PM63 °FClear.18 mph24%29.73 "Hg10 mi
7:55 PM63 °FClear.14 mph23%29.72 "Hg10 mi
7:35 PM63 °FClear.13 mph23%29.72 "Hg10 mi
7:15 PM63 °FClear.14 mph24%29.72 "Hg10 mi
6:55 PM63 °FClear.12 mph25%29.74 "Hg10 mi
6:15 PM64 °FClear.12 mph23%29.75 "Hg10 mi
5:55 PM65 °FClear.13 mph23%29.75 "Hg10 mi
5:35 PM66 °FSunny.10 mph22%29.74 "Hg10 mi
5:15 PM67 °FSunny.14 mph21%29.73 "Hg10 mi
4:55 PM68 °FSunny.20 mph20%29.74 "Hg10 mi
4:35 PM68 °FSunny.18 mph21%29.75 "Hg10 mi
4:15 PM67 °FSunny.15 mph24%29.77 "Hg10 mi
3:15 PM66 °FSunny.12 mph26%29.79 "Hg10 mi
2:55 PM65 °FSunny.16 mph26%29.81 "Hg10 mi
2:35 PM65 °FSunny.16 mph27%29.81 "Hg10 mi
2:15 PM65 °FSunny.15 mph27%29.80 "Hg10 mi
Weather by CustomWeather, © 2014

See weather overviewHow to use our weather pages